This is the latest recevied weather packets stored in our database for station/object K5OLV. If no packets are shown the sender has not sent any weather packets the latest 10 day(s).
| Time | Temp. | Humidity | Pressure | Rain* | Wind** | Luminosity | Snow |
|---|---|---|---|---|---|---|---|
| 1777411810 | 18.89° C | 88% | 1014.7 hPa | 0 mm | - | 89 W/m² | - |
| 1777411508 | 19.44° C | 87% | 1014.6 hPa | 0 mm | - | 97 W/m² | - |
| 1777411203 | 19.44° C | 87% | 1014.7 hPa | 0 mm | - | 127 W/m² | - |
| 1777410897 | 19.44° C | 87% | 1014.4 hPa | 0 mm | - | 121 W/m² | - |
| 1777410597 | 19.44° C | 87% | 1014.6 hPa | 0 mm | - | 145 W/m² | - |
| 1777410297 | 19.44° C | 86% | 1014.7 hPa | 0 mm | - | 115 W/m² | - |
| 1777409992 | 19.44° C | 87% | 1014.7 hPa | 0 mm | - | 135 W/m² | - |
| 1777409687 | 20° C | 86% | 1014.8 hPa | 0 mm | - | 187 W/m² | - |
| 1777409383 | 20° C | 85% | 1014.6 hPa | 0 mm | - | 170 W/m² | - |
| 1777409079 | 20° C | 84% | 1014.7 hPa | 0 mm | - | 265 W/m² | - |
| 1777408776 | 20.56° C | 83% | 1014.9 hPa | 0 mm | - | 205 W/m² | - |
| 1777408472 | 20.56° C | 83% | 1014.8 hPa | 0 mm | - | 225 W/m² | - |
| 1777408167 | 21.11° C | 82% | 1015.2 hPa | 0 mm | - | 262 W/m² | - |
| 1777407862 | 21.11° C | 82% | 1015.1 hPa | 0 mm | - | 404 W/m² | - |
| 1777407560 | 21.11° C | 82% | 1015.3 hPa | 0 mm | - | 442 W/m² | - |
| 1777407253 | 20° C | 85% | 1015.5 hPa | 0 mm | - | 591 W/m² | - |
| 1777406948 | 20° C | 85% | 1015.5 hPa | 0 mm | - | 266 W/m² | - |
| 1777406648 | 20° C | 84% | 1015.8 hPa | 0 mm | - | 238 W/m² | - |
| 1777406344 | 20° C | 84% | 1015.9 hPa | 0 mm | - | 194 W/m² | - |
| 1777406043 | 20.56° C | 84% | 1016 hPa | 0 mm | - | 223 W/m² | - |
| 1777405740 | 20.56° C | 84% | 1016.2 hPa | 0 mm | - | 189 W/m² | - |
| 1777405436 | 21.11° C | 83% | 1016.5 hPa | 0 mm | - | 214 W/m² | - |
| 1777405134 | 21.11° C | 81% | 1016.2 hPa | 0 mm | - | 230 W/m² | - |
| 1777404832 | 21.67° C | 80% | 1016.2 hPa | 0 mm | - | 311 W/m² | - |
| 1777404529 | 22.22° C | 79% | 1016.2 hPa | 0 mm | - | 264 W/m² | - |
* Rain latest hour (hover to see other rain measurements)
** Current wind speed in m/s (hover to see current wind gust speed)